• En España
  • Lista de países
  • Para 7 días
  • Temperatura del agua
  • Mapa Satelital
  • El tiempo en el mapa
  • Informadores
  • user-avatar
    Iniciar sesión

    Tiempo cada hora Kerns

    Hoy, 11 Diciembre, Lunes

    Tiempo Temperatura Precipitaciones Viento Presión Humedad
    00:00 +25°C° 0 mm 5 mps 758 mmHg 93%
    01:00 +25°C° 0 mm 5 mps 758 mmHg 94%
    02:00 +25°C° 0 mm 5 mps 758 mmHg 94%
    03:00 +25°C° 0 mm 5 mps 758 mmHg 93%
    04:00 +25°C° 0 mm 5 mps 758 mmHg 93%
    05:00 +26°C° 0 mm 5 mps 758 mmHg 90%
    06:00 +26°C° 0 mm 5 mps 758 mmHg 87%
    07:00 +27°C° 0 mm 5 mps 758 mmHg 84%
    08:00 +29°C° 0 mm 5 mps 758 mmHg 74%
    09:00 +32°C° 0 mm 5 mps 758 mmHg 65%
    10:00 +33°C° 0 mm 5 mps 758 mmHg 56%
    11:00 +34°C° 0 mm 5 mps 758 mmHg 52%
    12:00 +35°C° 0 mm 6 mps 758 mmHg 49%
    13:00 +36°C° 0 mm 6 mps 757 mmHg 45%
    14:00 +36°C° 0 mm 6 mps 757 mmHg 46%
    15:00 +35°C° 0 mm 6 mps 757 mmHg 47%
    16:00 +35°C° 0 mm 6 mps 756 mmHg 48%
    17:00 +33°C° 0 mm 6 mps 757 mmHg 57%
    18:00 +30°C° 0 mm 5 mps 757 mmHg 66%
    19:00 +28°C° 0 mm 5 mps 757 mmHg 75%
    20:00 +27°C° 0 mm 4 mps 757 mmHg 79%
    21:00 +26°C° 0 mm 4 mps 758 mmHg 84%
    22:00 +25°C° 0 mm 4 mps 758 mmHg 88%
    23:00 +25°C° 0 mm 4 mps 758 mmHg 90%

    Mañana, 12 Diciembre, Martes

    Tiempo Temperatura Precipitaciones Viento Presión Humedad
    00:00 +25°C° 0 mm 4 mps 758 mmHg 91%
    01:00 +25°C° 0 mm 3 mps 757 mmHg 93%
    02:00 +25°C° 0 mm 4 mps 757 mmHg 93%
    03:00 +25°C° 0 mm 4 mps 757 mmHg 94%
    04:00 +25°C° 0 mm 4 mps 757 mmHg 94%
    05:00 +25°C° 0 mm 4 mps 757 mmHg 90%
    06:00 +26°C° 0 mm 4 mps 757 mmHg 85%
    07:00 +26°C° 0 mm 5 mps 758 mmHg 81%
    08:00 +28°C° 0 mm 5 mps 758 mmHg 71%
    09:00 +30°C° 0 mm 5 mps 758 mmHg 60%
    10:00 +33°C° 0 mm 6 mps 758 mmHg 50%
    11:00 +34°C° 0 mm 6 mps 757 mmHg 48%
    12:00 +35°C° 0 mm 6 mps 757 mmHg 46%
    13:00 +36°C° 0 mm 6 mps 756 mmHg 44%
    14:00 +35°C° 0 mm 6 mps 756 mmHg 46%
    15:00 +35°C° 0 mm 6 mps 756 mmHg 47%
    16:00 +34°C° 0 mm 6 mps 755 mmHg 49%
    17:00 +32°C° 0 mm 6 mps 756 mmHg 57%
    18:00 +29°C° 0 mm 5 mps 756 mmHg 66%
    19:00 +27°C° 0 mm 5 mps 757 mmHg 74%
    20:00 +27°C° 0 mm 5 mps 757 mmHg 79%
    21:00 +26°C° 0 mm 5 mps 757 mmHg 84%
    22:00 +25°C° 0 mm 4 mps 758 mmHg 88%
    23:00 +25°C° 0 mm 4 mps 758 mmHg 89%

    Pasado mañana, 13 Diciembre, Miércoles

    Tiempo Temperatura Precipitaciones Viento Presión Humedad
    00:00 +25°C° 0 mm 4 mps 757 mmHg 90%
    01:00 +23°C° 0 mm 4 mps 757 mmHg 91%
    02:00 +23°C° 0 mm 4 mps 757 mmHg 91%
    03:00 +23°C° 0 mm 4 mps 756 mmHg 91%
    04:00 +23°C° 0 mm 4 mps 756 mmHg 91%
    05:00 +25°C° 0 mm 4 mps 756 mmHg 87%
    06:00 +25°C° 0 mm 5 mps 757 mmHg 83%
    07:00 +26°C° 0 mm 5 mps 757 mmHg 80%
    08:00 +28°C° 0 mm 5 mps 757 mmHg 70%
    09:00 +30°C° 0 mm 5 mps 757 mmHg 61%
    10:00 +33°C° 0 mm 6 mps 757 mmHg 51%
    11:00 +34°C° 0 mm 6 mps 757 mmHg 48%
    12:00 +35°C° 0 mm 6 mps 757 mmHg 46%
    13:00 +36°C° 0 mm 6 mps 756 mmHg 43%
    14:00 +35°C° 0 mm 6 mps 756 mmHg 43%
    15:00 +35°C° 0 mm 6 mps 755 mmHg 42%
    16:00 +35°C° 0 mm 6 mps 755 mmHg 42%
    17:00 +32°C° 0 mm 5 mps 755 mmHg 52%
    18:00 +29°C° 0 mm 5 mps 756 mmHg 62%
    19:00 +27°C° 0 mm 5 mps 756 mmHg 72%
    20:00 +26°C° 0 mm 4 mps 757 mmHg 78%
    21:00 +25°C° 0 mm 4 mps 757 mmHg 84%
    22:00 +25°C° 0 mm 4 mps 758 mmHg 90%
    23:00 +23°C° 0,1 mm 4 mps 757 mmHg 91%

    14 Diciembre, Jueves

    Tiempo Temperatura Precipitaciones Viento Presión Humedad
    00:00 +23°C° 0,1 mm 4 mps 757 mmHg 93%
    01:00 +24°C° 0,1 mm 3 mps 757 mmHg 95%
    02:00 +24°C° 0 mm 3 mps 756 mmHg 95%
    03:00 +25°C° 0 mm 3 mps 756 mmHg 95%
    04:00 +25°C° 0 mm 3 mps 756 mmHg 95%
    05:00 +25°C° 0,1 mm 4 mps 756 mmHg 91%
    06:00 +26°C° 0,1 mm 4 mps 757 mmHg 88%
    07:00 +26°C° 0,1 mm 4 mps 757 mmHg 84%
    08:00 +29°C° 0,1 mm 4 mps 757 mmHg 73%
    09:00 +32°C° 0,1 mm 4 mps 757 mmHg 62%
    10:00 +34°C° 0,1 mm 5 mps 757 mmHg 51%
    11:00 +35°C° 0 mm 5 mps 756 mmHg 47%
    12:00 +36°C° 0 mm 5 mps 756 mmHg 43%
    13:00 +37°C° 0 mm 5 mps 755 mmHg 39%
    14:00 +36°C° 0 mm 5 mps 755 mmHg 40%
    15:00 +36°C° 0 mm 5 mps 754 mmHg 40%
    16:00 +36°C° 0 mm 5 mps 754 mmHg 41%
    17:00 +33°C° 0 mm 5 mps 754 mmHg 51%
    18:00 +30°C° 0 mm 4 mps 755 mmHg 60%
    19:00 +27°C° 0 mm 4 mps 755 mmHg 70%
    20:00 +26°C° 0 mm 3 mps 756 mmHg 75%
    21:00 +25°C° 0 mm 3 mps 756 mmHg 80%
    22:00 +25°C° 0 mm 3 mps 757 mmHg 85%
    23:00 +24°C° 0 mm 3 mps 757 mmHg 85%

    15 Diciembre, Viernes

    Tiempo Temperatura Precipitaciones Viento Presión Humedad
    00:00 +24°C° 0 mm 3 mps 756 mmHg 85%
    01:00 +24°C° 0 mm 3 mps 756 mmHg 85%
    02:00 +24°C° 0 mm 3 mps 756 mmHg 87%
    03:00 +24°C° 0 mm 3 mps 755 mmHg 89%
    04:00 +22°C° 0 mm 3 mps 755 mmHg 91%
    05:00 +24°C° 0 mm 3 mps 756 mmHg 87%
    06:00 +25°C° 0 mm 3 mps 756 mmHg 84%
    07:00 +26°C° 0 mm 3 mps 757 mmHg 80%
    08:00 +29°C° 0 mm 3 mps 757 mmHg 70%
    09:00 +31°C° 0 mm 3 mps 756 mmHg 59%
    10:00 +35°C° 0 mm 3 mps 756 mmHg 48%
    11:00 +36°C° 0 mm 3 mps 756 mmHg 44%
    12:00 +37°C° 0 mm 4 mps 755 mmHg 40%
    13:00 +38°C° 0 mm 4 mps 755 mmHg 35%
    14:00 +37°C° 0 mm 4 mps 754 mmHg 38%
    15:00 +37°C° 0 mm 4 mps 754 mmHg 40%
    16:00 +36°C° 0 mm 5 mps 753 mmHg 43%
    17:00 +34°C° 0 mm 4 mps 754 mmHg 54%
    18:00 +30°C° 0 mm 4 mps 754 mmHg 65%
    19:00 +28°C° 0 mm 4 mps 755 mmHg 76%
    20:00 +27°C° 0 mm 3 mps 755 mmHg 81%
    21:00 +26°C° 0 mm 3 mps 756 mmHg 87%
    22:00 +25°C° 0 mm 3 mps 756 mmHg 92%
    23:00 +25°C° 0 mm 3 mps 756 mmHg 92%

    16 Diciembre, Sábado

    Tiempo Temperatura Precipitaciones Viento Presión Humedad
    00:00 +25°C° 0 mm 3 mps 756 mmHg 92%
    01:00 +25°C° 0 mm 3 mps 756 mmHg 92%
    02:00 +25°C° 0 mm 3 mps 756 mmHg 93%
    03:00 +24°C° 0 mm 3 mps 756 mmHg 94%
    04:00 +24°C° 0 mm 3 mps 756 mmHg 95%
    05:00 +25°C° 0 mm 3 mps 757 mmHg 92%
    06:00 +26°C° 0 mm 3 mps 757 mmHg 89%
    07:00 +27°C° 0 mm 3 mps 758 mmHg 86%
    08:00 +29°C° 0 mm 3 mps 758 mmHg 73%
    09:00 +31°C° 0 mm 3 mps 757 mmHg 61%
    10:00 +34°C° 0 mm 4 mps 757 mmHg 48%
    11:00 +36°C° 0 mm 4 mps 757 mmHg 43%
    12:00 +37°C° 0 mm 4 mps 756 mmHg 38%
    13:00 +39°C° 0 mm 5 mps 755 mmHg 33%
    14:00 +37°C° 0 mm 5 mps 755 mmHg 36%
    15:00 +37°C° 0 mm 5 mps 755 mmHg 39%
    16:00 +37°C° 0 mm 5 mps 754 mmHg 42%
    17:00 +35°C° 0 mm 5 mps 755 mmHg 52%
    18:00 +32°C° 0 mm 5 mps 755 mmHg 63%
    19:00 +29°C° 0 mm 5 mps 756 mmHg 73%
    20:00 +29°C° 0 mm 5 mps 756 mmHg 79%
    21:00 +28°C° 0 mm 5 mps 756 mmHg 85%
    22:00 +27°C° 0 mm 4 mps 757 mmHg 90%
    23:00 +27°C° 0 mm 4 mps 756 mmHg 92%
    Mostrar más